Regional Weather Roundup
Issued by NWS

Home | Current Version | Previous Version | Graphics & Text | Print | Product List | Glossary On
Versions: 1 2 3 4 5 6 7 8 9 10 11 12 13 14 15 16 17 18 19 20 21 22 23 24 25 26 27 28 29 30 31 32 33 34 35 36 37 38 39 40 41 42 43 44 45 46 47 48 49 50
000
ASUS43 KTOP 010559
RWRKS

WEATHER ROUNDUP FOR KANSAS
NATIONAL WEATHER SERVICE GOODLAND KS
1200 AM CST SUN MAR 01 2015

NOTE:  "FAIR" INDICATES FEW OR NO CLOUDS BELOW 12,000 FEET WITH NO
SIGNIFICANT WEATHER AND/OR OBSTRUCTIONS TO VISIBILITY.

KSZ001>006-013>018-027>032-041>047-010700-
NORTHWEST KANSAS

CITY           SKY/WX    TMP DP  RH WIND       PRES   REMARKS
GOODLAND       CLOUDY    18  15  88 S9        30.13F
6HR MIN TEMP:  18; 6HR MAX TEMP:  19; 6HR PCP: TRACE;

HAYS           PTCLDY    16   7  67 CALM      30.27S
HILL CITY      CLOUDY    20  15  81 CALM      30.27S
6HR MIN TEMP:  20; 6HR MAX TEMP:  21;

RUSSELL        PTCLDY    17  15  92 SE7       30.28S
6HR MIN TEMP:  17; 6HR MAX TEMP:  20;

$$

KSZ061>065-074>080-084>089-010700-
SOUTHWEST KANSAS

CITY           SKY/WX    TMP DP  RH WIND       PRES   REMARKS
DODGE CITY     CLOUDY    19  15  84 SE7       30.23S FOG
6HR MIN TEMP:  19; 6HR MAX TEMP:  20;

ELKHART          N/A     21  18  88 SE9         N/A
GARDEN CITY    CLOUDY    19  16  88 SE8       30.19R
6HR MIN TEMP:  19; 6HR MAX TEMP:  20;

GREAT BEND     CLOUDY    19  12  73 CALM      30.30S
LIBERAL        CLOUDY    21  16  79 E10       30.19S WCI  10
$$

KSZ066>073-081>083-090>101-010700-
SOUTHEAST KANSAS

CITY           SKY/WX    TMP DP  RH WIND       PRES   REMARKS
CHANUTE        CLOUDY    24  22  91 CALM      30.35F
6HR MIN TEMP:  23; 6HR MAX TEMP:  24; 6HR PCP: TRACE;

COFFEYVILLE    CLOUDY    25  24  96 CALM      30.37R FOG
6HR MIN TEMP:  25; 6HR MAX TEMP:  26; 6HR PCP: TRACE;

HUTCHINSON     CLOUDY    21  17  84 CALM      30.32F
6HR MIN TEMP:  19; 6HR MAX TEMP:  22; 6HR PCP: TRACE;

MEDICINE LODGE   N/A     21  20  96 CALM      30.31S
NEWTON         CLOUDY    19  14  79 SE5       30.32F
PARSONS        CLOUDY    25  24  96 CALM      30.36F
6HR MIN TEMP:  25; 6HR MAX TEMP:  26; 6HR PCP: TRACE;

WICHITA INTL   CLOUDY    23  19  85 SE3       30.33F
6HR MIN TEMP:  23; 6HR MAX TEMP:  23;

WICHITA JABRA  CLOUDY    22  18  85 CALM      30.32F
6HR MIN TEMP:  21; 6HR MAX TEMP:  22;

WINFIELD       CLOUDY    23  22  96 CALM      30.35F FOG
6HR MIN TEMP:  23; 6HR MAX TEMP:  24;

$$

KSZ007>012-019>026-033>040-048>060-102>105-010700-
NORTHEAST KANSAS

CITY           SKY/WX    TMP DP  RH WIND       PRES   REMARKS
CONCORDIA      CLOUDY    20  17  88 CALM      30.33S
6HR MIN TEMP:  20; 6HR MAX TEMP:  21;

EMPORIA        CLOUDY    21  19  92 CALM      30.34F
6HR MIN TEMP:  21; 6HR MAX TEMP:  22; 6HR PCP: TRACE;

LAWRENCE       CLOUDY    22  20  92 CALM      30.38S FOG
6HR MIN TEMP:  22; 6HR MAX TEMP:  23; 6HR PCP:  0.01;

MANHATTAN      CLOUDY    23  19  85 SW3       30.36S
6HR MIN TEMP:  22; 6HR MAX TEMP:  24;

OLATHE IND     LGT SNOW  22  20  92 CALM      30.36S FOG
6HR MIN TEMP:  21; 6HR MAX TEMP:  22; 6HR PCP:  0.03;

OLATHE EXE     LGT SNOW  22  20  92 CALM      30.35S FOG
6HR MIN TEMP:  21; 6HR MAX TEMP:  22; 6HR PCP:  0.04;

SALINA         CLOUDY    22  17  81 S3        30.35F
6HR MIN TEMP:  20; 6HR MAX TEMP:  23;

TOPEKA BILLARD CLOUDY    23  18  81 CALM      30.38S
6HR MIN TEMP:  23; 6HR MAX TEMP:  24;

TOPEKA FORBES  CLOUDY    23  19  85 CALM      30.36S
6HR MIN TEMP:  23; 6HR MAX TEMP:  24; 6HR PCP: TRACE;

$$



USA.gov is the U.S. government's official web portal to all federal, state and local government web resources and services.